Regional Weather Roundup
Issued by NWS

Home | Current Version | Previous Version | Text Only | Print | Product List | Glossary Off
Versions: 1 2 3 4 5 6 7 8 9 10 11 12 13 14 15 16 17 18 19 20 21 22 23 24 25 26 27 28 29 30 31 32 33 34 35 36 37 38 39 40 41 42 43 44 45 46 47 48 49 50

000
ASUS43 KLMK 292002
RWRKY
KENTUCKY REGIONAL WEATHER ROUNDUP
NATIONAL WEATHER SERVICE LOUISVILLE KY
400 PM EDT SAT APR 29 2017

NOTE "FAIR" INDICATES FEW OR NO CLOUDS BELOW 12,000 FEET
WITH NO SIGNIFICANT WEATHER AND/OR OBSTRUCTIONS TO VISIBILITY.

KYZ001>023-026-027-061>063-070>075-292100-
WESTERN AND SOUTH CENTRAL KENTUCKY

CITY           SKY/WX    TMP DP  RH WIND       PRES   REMARKS
PADUCAH        CLOUDY    85  66  53 S17G23    29.87F
HENDERSON        N/A    N/A N/A N/A MISG        N/A
OWENSBORO      CLOUDY    85  69  58 SE13      29.93F
HOPKINSVILLE   MOSUNNY   86  66  51 S13G18    29.93R
BOWLING GREEN  MOSUNNY   88  66  48 S15G23    29.96F HX  90
GLASGOW        NOT AVBL
$$

KYZ024-025-028>034-038-045-046-053-292100-
NORTH CENTRAL KENTUCKY

CITY           SKY/WX    TMP DP  RH WIND       PRES   REMARKS
LOUISVILLE/SDF CLOUDY    83  68  60 SE10      29.98F
LOUISVILLE/LOU MOSUNNY   81  69  67 E8        29.99F
FORT KNOX      MOSUNNY   82  69  64 E8        29.97S
$$

KYZ035>037-039>044-047>052-055>060-089>105-292100-
NORTHEAST KENTUCKY

CITY           SKY/WX    TMP DP  RH WIND       PRES   REMARKS
LEXINGTON      CLOUDY    85  64  49 SE6       30.02F
COVINGTON      PTSUNNY   78  64  61 SE12      30.03F
FRANKFORT      MOSUNNY   82  65  56 E6        30.01F
$$

KYZ054-064>069-076>088-106>120-292100-
SOUTHEAST KENTUCKY

CITY           SKY/WX    TMP DP  RH WIND       PRES   REMARKS
JACKSON        CLOUDY    87  63  44 CALM      30.08F
LONDON         CLOUDY    86  61  42 SE7       30.05F
SOMERSET       NOT AVBL
MIDDLESBORO    CLOUDY    89  65  44 SW5       30.07F HX  90
MONTICELLO     CLOUDY    89  68  49 S12G18    30.03F HX  93
$$




USA.gov is the U.S. government's official web portal to all federal, state and local government web resources and services.